Location: Unspecified
(47.9110°N, 14.3980°E)
Time: 21:49:29
(UTC+00:00)

Cosmos 1666 Rocket - Pass Details

Date: 06 August 2020
Orbit: 605 x 632 km, 82.5° (Epoch: 22 September)

Event Time Altitude Azimuth Distance (km) Brightness Sun altitude
Exits shadow 19:48:33 13° 162° (SSE) 1,751 5.4 -11.8°
Maximum altitude 19:52:07 44° 93° (E) 849 3.9 -12.2°
Drops below altitude 10° 19:56:14 10° 22° (NNE) 1,967 6.4 -12.8°
Sets 19:58:32 0° 16° (NNE) 2,879 7.4 -13.0°
